Flag for Saudi Arabia Weather past 2 weeks in Medina, Saudi Arabia

Now
86 °F

Sunny.


Feels Like: 83 °F
Forecast: 55 / 87 °F
Wind: 5 mph from Southeast

Location: Madinah

Current Time: Feb 1, 2015 at 6:08:50 PM

Latest Report: Feb 1, 2015 at 5:00 PM


Visibility: 6 mi

Pressure: 30.04 "Hg

Humidity: 17%

Dew point: 36 °F

Location of MedinaLocation

Historic Weather in Medina — Graph

°F

Medina temperature yesterday

Maximum temperature yesterday: 86 °F (at 4:00 PM)
Minimum temperature yesterday: 63 °F (at 7:00 AM)
Average temperature yesterday: 75 °F

Past Weeks' High & Low Weather Summary

 TemperatureHumidityPressure
High88 °F (Jan 25, 3:00 PM)73% (Jan 30, 7:00 AM)30.33 "Hg (Jan 30, 7:00 AM)
Low46 °F (Jan 20, 6:00 AM)0% (Jan 25, 1:00 PM)29.92 "Hg (Jan 28, 3:00 PM)
Average68 °F20%30.13 "Hg
* Reported Jan 17 5:00 PM — Feb 1 5:00 PM, Medina, Weather by CustomWeather, © 2014

Note: Actual official high and low records may vary slightly from our data, if they occured in-between our weather recording intervals... More about our weather records

Advertising

Medina weather history for previous 24 hours

 ConditionsComfort  
Time TempWeatherWind HumidityBarometerVisibility
5:00 PM
Feb 1
86 °FSunny.5 mph17%30.04 "Hg6 mi
4:00 PM86 °FSunny.7 mph18%30.04 "Hg6 mi
3:00 PM82 °FSunny.5 mph20%30.07 "Hg6 mi
2:00 PM82 °FClear.13 mph23%30.09 "Hg4 mi
1:00 PM81 °FClear.8 mph26%30.12 "Hg4 mi
12:00 PM77 °FClear.13 mph32%30.15 "Hg4 mi
11:00 AM73 °FClear.12 mph36%30.18 "Hg4 mi
10:00 AM72 °FClear.12 mph38%30.21 "Hg4 mi
9:00 AM68 °FClear.13 mph40%30.18 "Hg4 mi
8:00 AM64 °FClear.9 mph46%30.18 "Hg5 mi
7:00 AM64 °FClear.9 mph46%30.15 "Hg5 mi
6:00 AM66 °FClear.7 mph43%30.12 "Hg10 mi
5:00 AM66 °FClear.7 mph40%30.12 "Hg10 mi
4:00 AM68 °FClear.5 mph38%30.12 "Hg10 mi
3:00 AM68 °FClear.7 mph43%30.12 "Hg10 mi
2:00 AM70 °FClear.3 mph40%30.15 "Hg10 mi
1:00 AM70 °FClear.5 mph40%30.15 "Hg10 mi
12:00 AM75 °FClear.No wind36%30.15 "Hg10 mi
11:00 PM
Jan 31
77 °FClear.5 mph36%30.15 "Hg10 mi
10:00 PM77 °FClear.6 mph36%30.15 "Hg10 mi
9:00 PM79 °FClear.7 mph32%30.12 "Hg10 mi
8:00 PM81 °FClear.12 mph30%30.12 "Hg10 mi
7:00 PM82 °FClear.9 mph28%30.09 "Hg10 mi
6:00 PM84 °FSunny.12 mph23%30.07 "Hg10 mi
Weather by CustomWeather, © 2014

See weather overviewHow to use our weather pages